DECAYED

OBJECT BB, 57327 (Decayed)

Orbit data source: Space-Track

You're viewing an Uncataloged Satellite

Recently launched and/or uncataloged satellites may have evolving metadata. Metadata may include but not limited to: Owner, Maufacturer, Bus, Motor, and Mission.

OBJECT BB, 57327 was a satellite in LEO that was launched on Tue, 27 Jun 2023 UTC via a SOYUZ-2-1B launch vehicle from the Vostochny Cosmodrome (VOSTO). Unknown objects in Earth's orbit typically refer to objects detected orbiting the Earth but have not yet been identified or cataloged. These objects could be anything from previously untracked satellites, spent rocket stages, debris from satellite collisions, or even natural meteoroids temporarily captured by Earth's gravity. This object's orbit decayed before it could be identified.

Not visible in the next 10 days
Identifier
57327, 2023-091BB
Orbit
Decayed
Country
Flag of TBDTBD
Related business
Flag of RUOOO Stratonavtika (RU)
Manufacturer
MKS
Mission
Decayed Commercial Communications
Bus & Motor
TINYSAT 2TU, Unknown motor
Mass
0.25 kg wet, 0.25 kg dry
Launch date (UTC)
2023-06-27 (3 years ago)
Launch vehicle
SOYUZ-2-1B
Launch site
Vostochny Cosmodrome (VOSTO)
Object type
Unknown
Shape & HBR
Box, 0.1 m
Radar Cross Section
0.006 m², Medium (>0.1 m² and < 1m²)

Expand to show TLE details & history
Last TLE update: 10 months ago

TLE from 10 months ago
0 OBJECT BB
1 57327U 23091BB  25215.94783005  .07226389  25611-5  16265-2 0  9999
2 57327  97.5142 290.0171 0015369 258.0341 101.9230 16.29874339114825
Epoch: 2025-08-03T22:44Z
TLE epoch observation values (Epoch: 2025-08-03T22:44:52.516Z)
Latitude
-0.00001°
Longitude
-3.96405°
Altitude
198.214 km
Speed
7.786 km/s
True Right ascension
19h 20m 04s
True Declination
0° 00' 00"
Sunlit
Object was in full shadow at epoch
Visualization orbit readout
Latitude
Unknown
Longitude
Unknown
Altitude
Unknown
Speed
Unknown
Apparent Right ascension
Unknown
Apparent Declination
Unknown
Sunlit
N/A
Visualization observer readout
Local Sidereal Time
12:55:50
Azimuth
Unknown
Elevation
Unknown
Doppler factor
Unknown
Orbital elements
Apogee altitude
199.798 km
Perigee altitude
179.609 km
Semi-major axis
6,567.84 km
Eccentricity
0.00154
Inclination
97.5142°
RAAN
290.0171°
Arg. of periapsis
258.0341°
True anomaly
102.09525°
Mean anomaly
101.923°
Eccentric anomaly
102.00913°
Mean motion
4.07764 °/min
Orbital period
88.29 mins
BSTAR
0.0016265
Loading maneuver chart data...
Computing Atmospheric mass density...
Loading historical data...
Loading historical data...
Loading historical data...
Loading historical data...
Loading historical data...
Loading historical data...
Loading historical data...

Documentation

Showing up to 5 results
|